Weather History for Lima, OH

Change the Weather History Date:

Monday, March 11, 2013

  Actual Average (KFDY) Record (KFDY)
Temperature  
Mean Temperature 46 °F -  
Max Temperature 57 °F 43 °F 74 °F (1990)
Min Temperature 35 °F 27 °F 6 °F (1969)
Degree Days  
Heating Degree Days 19    
Moisture  
Dew Point 42 °F    
Average Humidity 81    
Maximum Humidity 96    
Minimum Humidity 53    
Precipitation  
Precipitation 0.43 in - - ()
Sea Level Pressure  
Sea Level Pressure 29.67 in    
Wind  
Wind Speed 21 mph (SSW)    
Max Wind Speed 29 mph    
Max Gust Speed 38 mph    
Visibility 9 miles    
Events Rain    
Averages and records for this station are not official NWS values.
T = Trace of Precipitation, MM = Missing Value Source: NWS Daily Summary

Daily Weather History Graph

Daily Weather History Graph

Search for Another Location

Airport:

Trip Planner

Search our weather history database for the weather conditions in past years. The results will help you decide how hot, cold, wet, or windy it might be!

Date:

Astronomy

Mar. 11, 2013 Rise Set
Actual Time 7:53 AM EDT 7:38 PM EDT
Civil Twilight 7:26 AM EDT 8:06 PM EDT
Nautical Twilight 6:54 AM EDT 8:37 PM EDT
Astronomical Twilight 6:22 AM EDT 9:09 PM EDT
Moon 7:26 AM EDT (3/11) 7:50 PM EDT (3/11)
Length of Visible Light 12h 39m
Length of Day
11h 44m
Waning Crescent, 0% of the Moon is Illuminated
Mar 11
Waning Crescent
Mar 11
New
Mar 19
First Quarter
Mar 27
Full
Apr 3
Last Quarter

Hourly Weather History & Observations

Time (EDT) Temp. Windchill Dew Point Humidity Pressure Visibility Wind Dir Wind Speed Gust Speed Precip Events Conditions
12:53 AM 57.9 °F - 41.0 °F 53% 29.81 in 10.0 mi South 19.6 mph 29.9 mph 0.00 in Rain Light Rain
1:53 AM 55.9 °F - 42.1 °F 60% 29.80 in 10.0 mi South 17.3 mph 34.5 mph 0.01 in   Overcast
2:53 AM 52.0 °F - 45.0 °F 77% 29.80 in 8.0 mi South 18.4 mph 28.8 mph 0.07 in Rain Light Rain
3:53 AM 53.1 °F - 45.0 °F 74% 29.77 in 10.0 mi South 19.6 mph 31.1 mph 0.00 in   Overcast
4:53 AM 52.0 °F - 46.9 °F 83% 29.74 in 10.0 mi South 24.2 mph 33.4 mph 0.02 in Rain Light Rain
6:33 AM 51.8 °F - 44.6 °F 76% 29.75 in 10.0 mi South 19.6 mph 24.2 mph 0.00 in   Overcast
6:53 AM 52.0 °F - 45.0 °F 77% 29.74 in 10.0 mi South 21.9 mph 27.6 mph 0.00 in   Overcast
7:01 AM 51.8 °F - 44.6 °F 76% 29.73 in 9.0 mi South 24.2 mph 36.8 mph 0.00 in Rain Light Rain
7:53 AM 51.1 °F - 48.9 °F 92% 29.71 in 9.0 mi SSE 26.5 mph 36.8 mph 0.04 in Rain Light Rain
8:53 AM 50.0 °F - 48.9 °F 96% 29.75 in 7.0 mi South 24.2 mph 29.9 mph 0.05 in Rain Light Rain
9:53 AM 50.0 °F - 48.9 °F 96% 29.72 in 10.0 mi SSE 17.3 mph 26.5 mph 0.03 in   Overcast
10:53 AM 52.0 °F - 45.0 °F 77% 29.68 in 10.0 mi SSE 18.4 mph 28.8 mph N/A   Overcast
11:53 AM 52.0 °F - 46.0 °F 80% 29.65 in 10.0 mi SSE 20.7 mph 26.5 mph 0.00 in Rain Light Rain
12:53 PM 51.1 °F - 46.9 °F 86% 29.61 in 8.0 mi SSE 19.6 mph 31.1 mph 0.02 in Rain Light Rain
1:02 PM 51.8 °F - 46.4 °F 82% 29.61 in 6.0 mi SSE 19.6 mph 27.6 mph 0.01 in Rain Light Rain
1:26 PM 51.8 °F - 46.4 °F 82% 29.58 in 8.0 mi SSE 21.9 mph - 0.02 in Rain Light Rain
1:53 PM 52.0 °F - 46.9 °F 83% 29.56 in 9.0 mi SSE 25.3 mph 32.2 mph 0.03 in Rain Light Rain
2:04 PM 53.6 °F - 46.4 °F 77% 29.56 in 10.0 mi South 25.3 mph 34.5 mph 0.00 in Rain Light Rain
2:53 PM 54.0 °F - 48.9 °F 83% 29.52 in 7.0 mi South 25.3 mph 34.5 mph 0.01 in Rain Light Rain
3:12 PM 53.6 °F - 48.2 °F 82% 29.55 in 1.8 mi SSW 19.6 mph 33.4 mph 0.07 in Rain Rain
3:16 PM 51.8 °F - 48.2 °F 88% 29.56 in 3.0 mi SW 28.8 mph 34.5 mph 0.07 in Rain Light Rain
3:25 PM 48.2 °F - 44.6 °F 87% 29.56 in 6.0 mi West 24.2 mph 38.0 mph 0.08 in Rain Light Rain
3:41 PM 48.2 °F - 44.6 °F 87% 29.58 in 7.0 mi WSW 23.0 mph 28.8 mph 0.09 in Rain Light Rain
3:53 PM 48.0 °F - 45.0 °F 89% 29.58 in 4.0 mi WSW 19.6 mph - 0.13 in Rain Rain
4:26 PM 48.2 °F - 42.8 °F 82% 29.58 in 8.0 mi SW 17.3 mph 23.0 mph 0.01 in Rain Light Rain
4:34 PM 48.2 °F - 44.6 °F 87% 29.58 in 9.0 mi SW 15.0 mph 24.2 mph 0.01 in Rain Light Rain
4:53 PM 48.9 °F - 43.0 °F 80% 29.59 in 10.0 mi SW 18.4 mph - 0.02 in   Overcast
5:13 PM 48.2 °F - 42.8 °F 82% 29.60 in 10.0 mi West 24.2 mph 33.4 mph N/A   Overcast
5:53 PM 46.9 °F - 39.9 °F 77% 29.63 in 10.0 mi WSW 20.7 mph 31.1 mph N/A   Overcast
6:03 PM 46.4 °F 38.7 °F 39.2 °F 76% 29.63 in 10.0 mi WSW 20.7 mph 28.8 mph N/A   Overcast
6:53 PM 43.0 °F 34.5 °F 37.9 °F 82% 29.68 in 10.0 mi WSW 19.6 mph 25.3 mph N/A   Overcast
7:25 PM 41.0 °F 31.9 °F 35.6 °F 81% 29.68 in 8.0 mi West 19.6 mph 32.2 mph 0.00 in Rain Light Rain
7:44 PM 41.0 °F 32.5 °F 35.6 °F 81% 29.69 in 10.0 mi WSW 17.3 mph 27.6 mph 0.00 in   Overcast
7:53 PM 41.0 °F 32.2 °F 35.1 °F 79% 29.70 in 10.0 mi WSW 18.4 mph 29.9 mph 0.00 in   Overcast
8:53 PM 39.0 °F 28.5 °F 34.0 °F 82% 29.74 in 10.0 mi West 23.0 mph 27.6 mph N/A   Overcast
9:53 PM 37.9 °F 27.6 °F 32.0 °F 79% 29.77 in 10.0 mi WSW 20.7 mph 25.3 mph N/A   Overcast
10:07 PM 37.4 °F 27.5 °F 32.0 °F 81% 29.76 in 10.0 mi WSW 18.4 mph 28.8 mph N/A   Overcast
10:53 PM 37.9 °F 28.2 °F 30.9 °F 76% 29.79 in 10.0 mi WSW 18.4 mph 28.8 mph N/A   Overcast
11:37 PM 35.6 °F 25.5 °F 30.2 °F 81% 29.79 in 10.0 mi WSW 17.3 mph 26.5 mph N/A   Overcast
11:53 PM 36.0 °F 26.3 °F 30.9 °F 82% 29.81 in 10.0 mi WSW 16.1 mph - N/A   Overcast